User: anonymous   Login
Location: Prague
(50.0830°N, 14.4670°E)
Time: 12:34:58
(UTC+01:00)
Language:

STARLINK-1721 - Orbit

View from above orbital plane
View from above orbital plane
View from above satellite
View from above satellite

Ground track
Ground track

The orbit data is extracted from the following two-line orbital elements,

1 46332U 20062H   20338.25001157 -.00030883  00000-0 -21082-2 0  9994
2 46332  52.9992   6.7846 0001520  66.6211 358.5181 15.05604828 14732
Epoch (UTC): 03 December 2020 06:00:01
Eccentricity: 0.0001520
inclination: 52.9992°
perigee height: 548 km
apogee height: 551 km
right ascension of ascending node: 6.7846°
argument of perigee: 66.6211°
revolutions per day: 15.05604828
mean anomaly at epoch: 358.5181°
orbit number at epoch: 1473

The dashed part of the orbit path shows where the satellite is in the earth's shadow,  

DLR